[[{"header":{"parameterUnit":"m.s-1","parameterCategory":1,"la1":30.2991,"la2":30.254,"lo1":-89.0895,"lo2":-89.0444,"dy":0.0017,"dx":0.0017,"nx":28,"ny":28,"refTime":"2024-07-01T03:00:00:Z","depth":0,"parameterNumber":2,"parameterNumberName":"U-component_of_WINDS"},"data":[0,0,0,0,0,0,0,0,0,0,0,0,0,0,0,0,0,0,0,0,0,0,0,0,0,0,0,0,0,0,0,0,0,0,0,0,0,0,0,0,0,0,0,0,0,0,0,0,0,0,0,0,0,0,0,0,0,0,1.7799,1.7799,0,1.7832,1.7832,1.7832,1.7744,1.7742,1.7739,1.7736,1.7774,1.7778,1.7781,0,0,0,0,0,0,0,0,0,0,0,0,0,1.7665,1.7668,1.7799,1.78,1.78,1.7832,1.7832,1.7832,1.7745,1.7741,1.7738,1.7735,1.7773,1.7777,1.7782,0,0,0,0,0,0,0,0,0,0,0,0,0,1.7713,1.7669,1.7799,1.776,1.7757,1.7831,1.7832,1.7833,1.7746,1.7741,1.7737,1.7733,1.7772,1.7777,1.7782,1.7898,0,0,1.7799,1.7801,0,0,0,0,0,0,0,0,1.7711,1.7718,1.7765,1.7763,1.7759,1.7779,1.7799,1.7855,1.7747,1.775,1.7736,1.7731,1.778,1.7784,1.78,1.79,1.7901,1.7799,1.7802,1.7805,1.7806,0,0,0,0,0,0,0,1.7707,1.7716,1.7812,1.7766,1.7762,1.7742,1.7744,1.7809,1.7788,1.7749,1.7743,1.7748,1.7777,1.7795,1.78,1.7902,1.7799,1.7804,1.7807,1.7809,1.8098,1.8102,0,0,0,0,0,0,1.7708,1.7714,1.7811,1.7813,1.7724,1.7748,1.775,1.7777,1.7787,1.7784,1.7751,1.7744,1.7787,1.7794,1.7801,1.7937,1.7805,1.781,1.7813,1.8094,1.8099,1.8104,0,0,0,0,0,0,1.7706,1.7718,1.781,1.7762,1.7772,1.7754,1.7786,1.778,1.7797,1.7788,1.7784,1.7772,1.7784,1.7793,1.7874,1.7937,1.7812,1.7817,1.8089,1.8095,1.8102,1.821,0,0,0,0,0,0,1.7702,1.7718,1.7761,1.7763,1.7775,1.7882,1.7789,1.7784,1.7806,1.7796,1.7807,1.7805,1.7782,1.7866,1.7879,1.7942,1.7821,1.8083,1.8092,1.81,1.8201,1.822,1.8236,0,0,0,0,0,1.7698,1.7791,1.7763,1.7775,1.7828,1.7886,1.7892,1.7862,1.7811,1.7855,1.7849,1.7805,1.7928,1.7875,1.7889,1.7955,1.8079,1.8089,1.8099,1.8193,1.8216,1.8235,0,0,0,0,0,0,1.7798,1.7791,1.776,1.7856,1.7872,1.787,1.7925,1.7888,1.7919,1.7909,1.7872,1.7875,1.7963,1.7967,1.7909,1.8067,1.7995,1.8008,1.8061,1.8083,1.81,1.8098,1.7826,0,0,0,0,0,1.7831,1.7877,1.7868,1.7954,1.7964,1.7943,1.7967,1.7942,1.7958,1.7965,1.7964,1.7983,1.8025,1.8054,1.8093,1.82,1.8202,1.8252,1.8269,1.8284,1.8296,1.8353,1.8376,1.8137,1.8137,1.8137,0,0,1.79,1.7902,1.7934,1.7974,1.7984,1.8033,1.7949,1.8006,1.8042,1.7974,1.8049,1.805,1.8068,1.8162,1.8204,1.8168,1.8362,1.8296,1.8308,1.8313,1.8366,1.8388,1.8409,1.8144,1.8143,1.8141,0,0,1.8052,1.8057,1.8129,1.814,1.8154,1.8139,1.8157,1.8161,1.8158,1.8233,1.8182,1.8226,1.83,1.8315,1.8332,1.8487,1.8448,1.8501,1.8593,1.8649,1.8668,1.8684,1.8741,1.8761,1.8513,1.8513,1.8514,0,1.8137,1.8208,1.8172,1.8231,1.8251,1.8188,1.8262,1.8274,1.8301,1.8317,1.8275,1.8366,1.8374,1.8471,1.8509,1.8524,1.8544,1.85,1.8668,1.8684,1.8699,1.8752,1.8773,1.852,1.8519,1.8518,1.8518,0,1.8312,1.8363,1.8419,1.8445,1.8471,1.8537,1.8512,1.8542,1.8515,1.8505,1.8583,1.8589,1.8628,1.8649,1.8623,1.8742,1.8719,1.8674,1.8601,1.8729,1.8778,1.8798,1.8529,1.8527,1.8525,1.8523,0,0,1.853,1.8533,1.8555,1.8565,1.8576,1.8615,1.8678,1.8714,1.8741,1.8762,1.8815,1.8878,1.8835,1.8854,1.883,1.8879,1.9003,1.8827,1.8827,1.886,1.9135,1.917,1.9194,1.8976,1.8979,1.8982,1.9133,0,1.868,1.8787,1.8756,1.8864,1.891,1.8851,1.8906,1.8919,1.8911,1.895,1.8942,1.8987,1.8927,1.8938,1.8984,1.8978,1.9057,1.8966,1.9026,1.9029,1.9025,1.922,1.9258,1.94,1.9152,1.9156,1.9158,0,1.887,1.8896,1.9009,1.901,1.9028,1.9079,1.9109,1.9146,1.916,1.9151,1.9172,1.9137,1.92,1.9125,1.9213,1.9151,1.9174,1.9174,1.9179,1.9185,1.9102,1.9232,1.9445,1.9467,1.9188,1.9186,1.9183,0,1.9019,1.9082,1.9157,1.9168,1.9172,1.9208,1.9212,1.9221,1.9245,1.9271,1.9286,1.932,1.934,1.9367,1.9343,1.9291,1.9434,1.9358,1.943,1.9431,1.9464,1.9463,1.9685,1.9477,1.9476,1.9476,1.9475,0,1.9191,1.9262,1.9224,1.927,1.9348,1.9311,1.939,1.9387,1.9396,1.9441,1.9392,1.9436,1.9401,1.9442,1.9423,1.9499,1.9508,1.9503,1.9497,1.9508,1.9509,1.9523,1.9513,1.9482,1.948,1.9479,1.9478,0,1.9371,1.9348,1.9426,1.9422,1.9423,1.9481,1.9478,1.9522,1.9509,1.9568,1.9579,1.9561,1.9607,1.9584,1.9633,1.962,1.9718,1.9698,1.9713,1.9708,1.9782,1.9776,2.0022,2.0053,1.9824,1.9826,1.9828,0,1.9483,1.9536,1.9537,1.9563,1.957,1.9613,1.9636,1.9601,1.9627,1.9646,1.9688,1.9729,1.976,1.9836,1.9828,1.9865,1.9846,1.993,1.9852,1.9861,1.9849,1.9847,1.9852,1.9947,1.9949,1.9952,1.9953,0,1.9684,1.967,1.9704,1.9734,1.9762,1.9785,1.9804,1.9828,1.9794,1.9826,1.9871,1.9895,1.9943,1.9986,2.0017,2.0022,1.9983,1.9978,1.9996,2.0009,2.0015,2.0013,1.9757,1.9973,1.9971,1.9969,1.9968,1.9967,1.9834,1.9879,1.9886,1.9926,1.9936,1.9954,1.9994,1.9986,2.0022,2.0058,2.0035,2.0089,2.01,2.0138,2.0148,2.019,2.0157,2.0184,2.0191,2.0199,2.0209,2.0007,2.0196,2.0195,2.0195,2.0194,2.0194,0,2.0034,2.0035,2.0072,2.0098,2.013,2.0087,2.0105,2.0135,2.0182,2.0195,2.0226,2.0278,2.0318,2.0312,2.0349,2.0384,2.0367,2.0395,2.0392,2.0394,2.0236,2.0217,2.0408,2.0408,2.0408,2.0408,2.0408,2.0408,2.0142,2.0214,2.0201,2.0278,2.0279,2.0329,2.0343,2.036,2.037,2.043,2.0462,2.0457,2.0463,2.0499,2.0534,2.0531,2.0548,2.0583,2.0574,2.0427,2.0405,2.0385,2.0367,2.0586,2.0587,2.0728,2.0729,2.0731]},{"header":{"parameterUnit":"m.s-1","parameterCategory":1,"la1":30.2991,"la2":30.254,"lo1":-89.0895,"lo2":-89.0444,"dy":0.0017,"dx":0.0017,"nx":28,"ny":28,"refTime":"2024-07-01T03:00:00:Z","depth":0,"parameterNumber":3,"parameterNumberName":"V-component_of_WINDS"},"data":[0,0,0,0,0,0,0,0,0,0,0,0,0,0,0,0,0,0,0,0,0,0,0,0,0,0,0,0,0,0,0,0,0,0,0,0,0,0,0,0,0,0,0,0,0,0,0,0,0,0,0,0,0,0,0,0,0,0,-0.4822,-0.4822,0,-0.4811,-0.4811,-0.4811,-0.4837,-0.4838,-0.4839,-0.4839,-0.4824,-0.4823,-0.4822,0,0,0,0,0,0,0,0,0,0,0,0,0,-0.486,-0.486,-0.4822,-0.4822,-0.4822,-0.4811,-0.4811,-0.4811,-0.4837,-0.4838,-0.4839,-0.484,-0.4824,-0.4823,-0.4822,0,0,0,0,0,0,0,0,0,0,0,0,0,-0.4846,-0.4859,-0.4822,-0.4833,-0.4834,-0.4811,-0.4811,-0.4811,-0.4837,-0.4838,-0.4839,-0.484,-0.4825,-0.4823,-0.4821,-0.4786,0,0,-0.4816,-0.4815,0,0,0,0,0,0,0,0,-0.4847,-0.4845,-0.4832,-0.4833,-0.4834,-0.4827,-0.4819,-0.4802,-0.4836,-0.4836,-0.4839,-0.4841,-0.4824,-0.4822,-0.4817,-0.4785,-0.4784,-0.4816,-0.4815,-0.4814,-0.4813,0,0,0,0,0,0,0,-0.4848,-0.4845,-0.4818,-0.4832,-0.4833,-0.4838,-0.4837,-0.4816,-0.4823,-0.4836,-0.4838,-0.4836,-0.4824,-0.4819,-0.4817,-0.4784,-0.4816,-0.4814,-0.4813,-0.4812,-0.4721,-0.4719,0,0,0,0,0,0,-0.4848,-0.4846,-0.4818,-0.4817,-0.4844,-0.4836,-0.4835,-0.4828,-0.4823,-0.4824,-0.4835,-0.4837,-0.4821,-0.4819,-0.4817,-0.4774,-0.4814,-0.4812,-0.4811,-0.4722,-0.472,-0.4719,0,0,0,0,0,0,-0.4849,-0.4845,-0.4819,-0.4832,-0.4829,-0.4834,-0.4825,-0.4827,-0.4821,-0.4823,-0.4823,-0.4829,-0.4822,-0.4819,-0.4793,-0.4774,-0.4811,-0.481,-0.4724,-0.4722,-0.472,-0.4688,0,0,0,0,0,0,-0.485,-0.4845,-0.4833,-0.4832,-0.4828,-0.4797,-0.4824,-0.4826,-0.4819,-0.4822,-0.4817,-0.4817,-0.4823,-0.4796,-0.4791,-0.4772,-0.4808,-0.4726,-0.4723,-0.472,-0.4691,-0.4686,-0.4681,0,0,0,0,0,-0.4851,-0.4824,-0.4832,-0.4829,-0.4813,-0.4795,-0.4793,-0.4802,-0.4817,-0.4804,-0.4805,-0.4817,-0.4777,-0.4793,-0.4788,-0.4768,-0.4727,-0.4724,-0.4721,-0.4694,-0.4687,-0.4681,0,0,0,0,0,0,-0.4821,-0.4824,-0.4833,-0.4805,-0.48,-0.48,-0.4783,-0.4794,-0.4784,-0.4787,-0.4797,-0.4795,-0.4767,-0.4765,-0.4783,-0.4733,-0.4754,-0.475,-0.4735,-0.4729,-0.4723,-0.4724,-0.4807,0,0,0,0,0,-0.4811,-0.4798,-0.4801,-0.4775,-0.4773,-0.4778,-0.4771,-0.4778,-0.4773,-0.477,-0.4769,-0.4762,-0.4748,-0.4738,-0.4725,-0.4691,-0.469,-0.4675,-0.467,-0.4665,-0.4661,-0.4642,-0.4636,-0.4709,-0.4709,-0.4709,0,0,-0.479,-0.479,-0.4781,-0.4769,-0.4766,-0.4751,-0.4776,-0.4759,-0.4748,-0.4767,-0.4743,-0.4742,-0.4735,-0.4705,-0.4691,-0.4702,-0.4641,-0.4661,-0.4658,-0.4656,-0.4639,-0.4632,-0.4625,-0.4707,-0.4707,-0.4708,0,0,-0.4745,-0.4744,-0.4723,-0.472,-0.4715,-0.4719,-0.4714,-0.4712,-0.4713,-0.4689,-0.4703,-0.4689,-0.4664,-0.4659,-0.4652,-0.4605,-0.4615,-0.46,-0.4572,-0.4554,-0.4548,-0.4543,-0.4525,-0.4519,-0.4596,-0.4596,-0.4596,0,-0.4719,-0.4699,-0.471,-0.4692,-0.4686,-0.4705,-0.4682,-0.4678,-0.4669,-0.4664,-0.4676,-0.4646,-0.4642,-0.461,-0.4599,-0.4593,-0.4587,-0.46,-0.4548,-0.4543,-0.4538,-0.4522,-0.4515,-0.4594,-0.4594,-0.4595,-0.4595,0,-0.4667,-0.4652,-0.4635,-0.4628,-0.462,-0.4599,-0.4607,-0.4597,-0.4604,-0.4607,-0.4582,-0.4578,-0.4565,-0.4558,-0.4564,-0.4527,-0.4533,-0.4547,-0.4568,-0.4529,-0.4514,-0.4507,-0.4591,-0.4592,-0.4593,-0.4593,0,0,-0.4602,-0.4601,-0.4595,-0.4591,-0.4588,-0.4576,-0.4556,-0.4544,-0.4535,-0.4528,-0.4511,-0.449,-0.4502,-0.4495,-0.4501,-0.4485,-0.4447,-0.45,-0.45,-0.449,-0.4404,-0.4393,-0.4386,-0.4454,-0.4453,-0.4452,-0.4404,0,-0.4557,-0.4525,-0.4534,-0.4501,-0.4487,-0.4504,-0.4487,-0.4482,-0.4483,-0.447,-0.4471,-0.4456,-0.4474,-0.447,-0.4455,-0.4455,-0.4429,-0.4458,-0.4437,-0.4436,-0.4437,-0.4378,-0.4367,-0.4322,-0.4398,-0.4397,-0.4396,0,-0.45,-0.4492,-0.4458,-0.4457,-0.4451,-0.4435,-0.4425,-0.4413,-0.4407,-0.4409,-0.4401,-0.4411,-0.439,-0.4412,-0.4383,-0.4402,-0.4394,-0.4392,-0.4391,-0.4388,-0.4413,-0.4373,-0.4308,-0.43,-0.4387,-0.4388,-0.4388,0,-0.4455,-0.4436,-0.4413,-0.441,-0.4408,-0.4396,-0.4394,-0.439,-0.4382,-0.4372,-0.4367,-0.4355,-0.4347,-0.4337,-0.4342,-0.4358,-0.4311,-0.4334,-0.4311,-0.4311,-0.43,-0.43,-0.4231,-0.4295,-0.4296,-0.4296,-0.4296,0,-0.4403,-0.4382,-0.4393,-0.4379,-0.4354,-0.4365,-0.434,-0.434,-0.4336,-0.4321,-0.4335,-0.432,-0.4328,-0.4314,-0.4318,-0.4292,-0.4289,-0.4289,-0.429,-0.4287,-0.4287,-0.4281,-0.4284,-0.4294,-0.4294,-0.4295,-0.4295,0,-0.4349,-0.4356,-0.4332,-0.4333,-0.4332,-0.4314,-0.4314,-0.4299,-0.4302,-0.4283,-0.4279,-0.4282,-0.4266,-0.4271,-0.4252,-0.4255,-0.4222,-0.4227,-0.4224,-0.4225,-0.4202,-0.4204,-0.4126,-0.4116,-0.4187,-0.4187,-0.4186,0,-0.4316,-0.4299,-0.4298,-0.429,-0.4288,-0.4274,-0.4266,-0.4276,-0.4267,-0.4259,-0.4246,-0.4231,-0.4219,-0.4192,-0.4192,-0.4178,-0.4182,-0.4156,-0.418,-0.4178,-0.4181,-0.4182,-0.418,-0.4151,-0.415,-0.415,-0.4149,0,-0.4255,-0.4259,-0.4248,-0.4238,-0.4229,-0.4222,-0.4215,-0.4207,-0.4216,-0.4205,-0.4189,-0.418,-0.4162,-0.4146,-0.4133,-0.413,-0.414,-0.4142,-0.4135,-0.4132,-0.4131,-0.4131,-0.4211,-0.4143,-0.4144,-0.4144,-0.4145,-0.4145,-0.421,-0.4196,-0.4193,-0.418,-0.4177,-0.417,-0.4157,-0.4158,-0.4146,-0.4133,-0.4139,-0.412,-0.4114,-0.4098,-0.4093,-0.4077,-0.4087,-0.4078,-0.4076,-0.4073,-0.407,-0.4134,-0.4075,-0.4075,-0.4075,-0.4075,-0.4075,0,-0.4149,-0.4148,-0.4137,-0.4127,-0.4117,-0.4129,-0.4123,-0.4112,-0.4096,-0.4091,-0.4079,-0.406,-0.4045,-0.4044,-0.403,-0.4018,-0.4022,-0.4013,-0.4014,-0.4013,-0.4062,-0.4069,-0.401,-0.401,-0.401,-0.401,-0.401,-0.401,-0.4116,-0.4094,-0.4097,-0.4072,-0.4071,-0.4054,-0.4049,-0.4043,-0.4038,-0.4017,-0.4005,-0.4005,-0.4001,-0.3986,-0.3972,-0.3972,-0.3966,-0.3955,-0.3957,-0.4003,-0.4009,-0.4015,-0.4022,-0.3954,-0.3954,-0.3908,-0.3908,-0.3908]}]]